Daviess Cnty AP, Washington,, IN

8:15 PM EDT on July 26, 2017 (GMT -0400)
Daviess County

Weather History for KDCY - January, 2014

Change the Weather History Date:

Sunday, January 19, 2014

  Actual Average (KLWV) Record (KLWV)
Temperature  
Mean Temperature 29 °F -  
Max Temperature 37 °F 35 °F 63 °F (2006)
Min Temperature 21 °F 20 °F 3 °F (2003)
Degree Days  
Heating Degree Days 36    
Moisture  
Dew Point 23 °F    
Average Humidity 75    
Maximum Humidity 93    
Minimum Humidity 61    
Precipitation  
Precipitation 0.00 in - - ()
Sea Level Pressure  
Sea Level Pressure 29.92 in    
Wind  
Wind Speed 14 mph (WSW)    
Max Wind Speed 25 mph    
Max Gust Speed 32 mph    
Visibility 10 miles    
Events      
Averages and records for this station are not official NWS values.
T = Trace of Precipitation, MM = Missing Value Source: NWS Daily Summary

Daily Weather History Graph

Daily Weather History Graph

Search for Another Location

Airport or City:

Trip Planner

Search our weather history database for the weather conditions in past years. The results will help you decide how hot, cold, wet, or windy it might be!

Date:

Astronomy

Jan. 19, 2014 Rise Set
Actual Time 8:03 AM EST 5:55 PM EST
Civil Twilight 7:34 AM EST 6:24 PM EST
Nautical Twilight 7:02 AM EST 6:56 PM EST
Astronomical Twilight 6:30 AM EST 7:28 PM EST
Moon 9:30 PM EST (1/19) 9:35 AM EST (1/19)
Length of Visible Light 10h 49m
Length of Day
9h 52m
Waning Gibbous, 89% of the Moon is Illuminated
Jan 19
Waning Gibbous
Jan 24
Last Quarter
Jan 30
New
Feb 6
First Quarter
Feb 14
Full

Hourly Weather History & Observations

Time (EST) Temp. Windchill Dew Point Humidity Pressure Visibility Wind Dir Wind Speed Gust Speed Precip Events Conditions
12:15 AM 35.6 °F 28.0 °F 32.2 °F 87% 29.79 in 10.0 mi West 10.4 mph - N/A   Overcast
12:35 AM 35.6 °F 27.1 °F 32.0 °F 87% 29.79 in 10.0 mi West 12.7 mph - N/A   Overcast
12:55 AM 34.7 °F 26.9 °F 32.0 °F 90% 29.79 in 10.0 mi WNW 10.4 mph - N/A   Overcast
1:15 AM 34.0 °F 24.6 °F 31.8 °F 92% 29.81 in 10.0 mi WNW 13.8 mph 24.2 mph N/A   Overcast
1:35 AM 33.6 °F 21.6 °F 31.8 °F 93% 29.82 in 10.0 mi NW 21.9 mph 25.3 mph N/A   Overcast
1:55 AM 31.8 °F 19.3 °F 28.2 °F 87% 29.84 in 10.0 mi NW 21.9 mph 31.1 mph N/A   Overcast
2:15 AM 30.4 °F 17.0 °F 25.5 °F 82% 29.86 in 10.0 mi NW 23.0 mph 32.2 mph N/A   Overcast
2:35 AM 30.0 °F 16.0 °F 24.6 °F 80% 29.88 in 10.0 mi NW 25.3 mph 32.2 mph N/A   Overcast
2:55 AM 29.3 °F 17.3 °F 22.8 °F 77% 29.89 in 10.0 mi NW 17.3 mph 25.3 mph N/A   Overcast
3:15 AM 26.8 °F 14.5 °F 23.5 °F 88% 29.90 in 10.0 mi NW 16.1 mph 24.2 mph N/A   Mostly Cloudy
3:35 AM 25.7 °F 13.5 °F 22.8 °F 89% 29.92 in 10.0 mi WNW 15.0 mph 21.9 mph N/A   Overcast
3:55 AM 24.6 °F 12.2 °F 21.7 °F 89% 29.94 in 10.0 mi WNW 15.0 mph 20.7 mph N/A   Overcast
4:15 AM 24.3 °F 11.7 °F 20.8 °F 87% 29.95 in 10.0 mi WNW 15.0 mph 24.2 mph N/A   Overcast
4:35 AM 23.9 °F 11.2 °F 20.1 °F 85% 29.96 in 10.0 mi NNW 15.0 mph 20.7 mph N/A   Overcast
4:55 AM 23.9 °F 11.7 °F 19.9 °F 85% 29.97 in 10.0 mi NW 13.8 mph 20.7 mph N/A   Overcast
5:15 AM 23.5 °F 10.8 °F 19.0 °F 83% 29.97 in 10.0 mi WNW 15.0 mph - N/A   Overcast
5:35 AM 23.7 °F 11.0 °F 19.2 °F 83% 29.98 in 10.0 mi NW 15.0 mph 18.4 mph N/A   Overcast
5:55 AM 23.2 °F 10.3 °F 18.5 °F 82% 30.00 in 10.0 mi WNW 15.0 mph - N/A   Overcast
6:15 AM 23.0 °F 12.4 °F 18.3 °F 82% 30.00 in 10.0 mi NW 10.4 mph - N/A   Overcast
6:35 AM 23.0 °F 10.6 °F 18.5 °F 83% 30.01 in 10.0 mi NW 13.8 mph - N/A   Overcast
6:55 AM 22.5 °F 11.7 °F 18.1 °F 83% 30.02 in 10.0 mi West 10.4 mph - N/A   Overcast
7:15 AM 21.9 °F 9.8 °F 17.6 °F 83% 30.03 in 10.0 mi WNW 12.7 mph 16.1 mph N/A   Overcast
7:35 AM 21.9 °F 12.5 °F 17.2 °F 82% 30.03 in 10.0 mi WNW 8.1 mph - N/A   Overcast
7:55 AM 22.5 °F 13.2 °F 17.6 °F 82% 30.05 in 10.0 mi WNW 8.1 mph - N/A   Overcast
8:15 AM 22.8 °F 14.5 °F 18.3 °F 83% 30.05 in 10.0 mi West 6.9 mph - N/A   Overcast
8:35 AM 22.6 °F 13.4 °F 18.3 °F 83% 30.04 in 10.0 mi West 8.1 mph - N/A   Overcast
8:55 AM 22.5 °F 13.2 °F 18.1 °F 83% 30.04 in 10.0 mi WSW 8.1 mph - N/A   Overcast
9:15 AM 22.3 °F 13.0 °F 18.1 °F 84% 30.04 in 10.0 mi WSW 8.1 mph - N/A   Overcast
9:35 AM 22.8 °F 13.6 °F 18.3 °F 83% 30.04 in 10.0 mi WSW 8.1 mph - N/A   Overcast
9:55 AM 23.7 °F 12.6 °F 19.2 °F 83% 30.06 in 10.0 mi WSW 11.5 mph - N/A   Overcast
10:15 AM 24.3 °F 13.3 °F 19.4 °F 82% 30.06 in 10.0 mi WSW 11.5 mph - N/A   Overcast
10:35 AM 24.8 °F 14.6 °F 19.9 °F 82% 30.06 in 10.0 mi West 10.4 mph 18.4 mph N/A   Overcast
10:55 AM 25.2 °F 14.4 °F 19.6 °F 79% 30.06 in 10.0 mi WSW 11.5 mph - N/A   Overcast
11:15 AM 26.2 °F 17.1 °F 20.5 °F 79% 30.05 in 10.0 mi SW 9.2 mph - N/A   Overcast
11:35 AM 26.4 °F 16.6 °F 20.3 °F 78% 30.05 in 10.0 mi SW 10.4 mph - N/A   Mostly Cloudy
11:55 AM 28.2 °F 17.7 °F 21.2 °F 75% 30.04 in 10.0 mi SW 12.7 mph 18.4 mph N/A   Scattered Clouds
12:15 PM 29.5 °F 18.4 °F 21.9 °F 73% 30.03 in 10.0 mi SW 15.0 mph 18.4 mph N/A   Scattered Clouds
12:35 PM 30.7 °F 20.4 °F 22.6 °F 72% 30.01 in 10.0 mi SW 13.8 mph 17.3 mph N/A   Clear
12:55 PM 30.9 °F 19.4 °F 23.0 °F 72% 30.00 in 10.0 mi SSW 17.3 mph 21.9 mph N/A   Clear
1:15 PM 32.0 °F 22.1 °F 23.5 °F 71% 29.99 in 10.0 mi SSW 13.8 mph 19.6 mph N/A   Clear
1:35 PM 32.0 °F 21.6 °F 23.5 °F 71% 29.98 in 10.0 mi SW 15.0 mph 20.7 mph N/A   Clear
1:55 PM 32.9 °F 22.8 °F 24.3 °F 71% 29.97 in 10.0 mi SW 15.0 mph 25.3 mph N/A   Clear
2:15 PM 33.8 °F 23.5 °F 24.4 °F 69% 29.95 in 10.0 mi SSW 16.1 mph 21.9 mph N/A   Clear
2:35 PM 34.3 °F 25.0 °F 24.4 °F 67% 29.94 in 10.0 mi SW 13.8 mph 21.9 mph N/A   Clear
2:55 PM 34.7 °F 24.0 °F 24.8 °F 67% 29.94 in 10.0 mi SSW 18.4 mph 23.0 mph N/A   Clear
3:15 PM 35.6 °F 25.9 °F 25.0 °F 65% 29.92 in 10.0 mi SW 16.1 mph 21.9 mph N/A   Clear
3:35 PM 36.3 °F 26.4 °F 25.2 °F 64% 29.92 in 10.0 mi SSW 17.3 mph 24.2 mph N/A   Clear
3:55 PM 36.9 °F 28.7 °F 24.8 °F 62% 29.90 in 10.0 mi SSW 12.7 mph 24.2 mph N/A   Clear
4:15 PM 37.4 °F 29.3 °F 25.2 °F 61% 29.89 in 10.0 mi SSW 12.7 mph - N/A   Clear
4:35 PM 37.4 °F 29.3 °F 25.7 °F 63% 29.89 in 10.0 mi SSW 12.7 mph 19.6 mph N/A   Clear
4:55 PM 37.4 °F 28.5 °F 26.1 °F 64% 29.88 in 10.0 mi SSW 15.0 mph 19.6 mph N/A   Clear
5:15 PM 37.0 °F 28.5 °F 25.5 °F 63% 29.87 in 10.0 mi SSW 13.8 mph - N/A   Clear
5:35 PM 36.9 °F 27.8 °F 25.7 °F 64% 29.87 in 10.0 mi SSW 15.0 mph 19.6 mph N/A   Clear
5:55 PM 36.5 °F 28.2 °F 25.7 °F 65% 29.85 in 10.0 mi SSW 12.7 mph 23.0 mph N/A   Clear
6:15 PM 36.5 °F 28.7 °F 25.7 °F 65% 29.85 in 10.0 mi SSW 11.5 mph 19.6 mph N/A   Clear
6:35 PM 36.5 °F 28.7 °F 25.9 °F 65% 29.85 in 10.0 mi SSW 11.5 mph - N/A   Clear
6:55 PM 37.0 °F 27.7 °F 25.7 °F 64% 29.84 in 10.0 mi SSW 16.1 mph 24.2 mph N/A   Clear
7:15 PM 36.5 °F 25.7 °F 26.1 °F 66% 29.81 in 10.0 mi SSW 20.7 mph 27.6 mph N/A   Clear
7:35 PM 36.9 °F 27.5 °F 25.9 °F 64% 29.81 in 10.0 mi SSW 16.1 mph 24.2 mph N/A   Clear
7:55 PM 36.9 °F 26.5 °F 25.9 °F 64% 29.80 in 10.0 mi SSW 19.6 mph 25.3 mph N/A   Clear
8:15 PM 37.0 °F 26.7 °F 25.7 °F 64% 29.78 in 10.0 mi SSW 19.6 mph 27.6 mph N/A   Clear
8:35 PM 37.4 °F 27.5 °F 25.5 °F 62% 29.79 in 10.0 mi SSW 18.4 mph 29.9 mph N/A   Clear
8:55 PM 37.2 °F 27.3 °F 25.5 °F 63% 29.79 in 10.0 mi SW 18.4 mph 26.5 mph N/A   Clear
9:15 PM 37.6 °F 28.1 °F 25.2 °F 61% 29.80 in 10.0 mi SW 17.3 mph 25.3 mph N/A   Clear
9:35 PM 37.2 °F 27.9 °F 25.5 °F 63% 29.80 in 10.0 mi SW 16.1 mph 26.5 mph N/A   Clear
9:55 PM 37.4 °F 28.5 °F 25.5 °F 62% 29.81 in 10.0 mi SW 15.0 mph 25.3 mph N/A   Clear
10:15 PM 36.9 °F 26.8 °F 25.9 °F 64% 29.80 in 10.0 mi SW 18.4 mph 25.3 mph N/A   Clear
10:35 PM 37.0 °F 27.4 °F 25.9 °F 64% 29.80 in 10.0 mi SW 17.3 mph 25.3 mph N/A   Clear
10:55 PM 37.6 °F 28.1 °F 25.7 °F 62% 29.79 in 10.0 mi SW 17.3 mph 26.5 mph N/A   Clear
11:15 PM 37.0 °F 28.1 °F 26.1 °F 65% 29.79 in 10.0 mi SW 15.0 mph 25.3 mph N/A   Clear
11:35 PM 36.9 °F 27.1 °F 26.4 °F 66% 29.78 in 10.0 mi SW 17.3 mph 25.3 mph N/A   Clear
11:55 PM 37.0 °F 28.1 °F 26.6 °F 66% 29.78 in 10.0 mi SW 15.0 mph 26.5 mph N/A   Clear